This demonstration page uses our WeatherBlox Daily Observations layout. Learn more.

Left ArrowRight Arrow

39.01783, -85.05884

Hourly Observations for June 29, 2018

Temp ( °F °C ) Dew Point ( °F °C ) Humidity (%) Winds ( mph kmh ) Pressure ( in mb ) Visibility ( mi km ) Precip ( " mm )
12:52 am 00:52 Cloudy 72 22.2 67 19.4 84 84 N N/A 29.97 1015 10 16 N/A
1:52 am 01:52 Cloudy 71 21.7 65 18.3 81 81 SE 5 7 29.96 1014 10 16 N/A
2:52 am 02:52 Cloudy 73 22.8 66 18.9 79 79 ESE 6 9 29.96 1015 10 16 N/A
3:52 am 03:52 Cloudy 73 22.8 66 18.9 79 79 ESE 7 11 29.94 1014 10 16 N/A
4:52 am 04:52 Mostly Cloudy 72 22.2 66 18.9 82 82 N N/A 29.95 1014 10 16 N/A
5:52 am 05:52 Mostly Cloudy 69 20.6 65 18.3 87 87 N N/A 29.97 1015 10 16 N/A
6:52 am 06:52 Mostly Cloudy 70 21.1 66 18.9 87 87 SE 3 6 30.01 1016 10 16 N/A
7:52 am 07:52 Partly Cloudy 74 23.3 67 19.4 79 79 SSE 5 7 30.03 1017 10 16 N/A
8:52 am 08:52 Mostly Sunny 79 26.1 68 20 69 69 S 8 13 30.05 1018 10 16 N/A
9:52 am 09:52 Mostly Sunny 82 27.8 69 20.6 65 65 S 6 9 30.06 1018 10 16 N/A
10:52 am 10:52 Partly Cloudy 84 28.9 68 20 59 59 S 7 11 30.05 1018 10 16 N/A
11:52 am 11:52 Partly Cloudy 85 29.4 69 20.6 59 59 SW 8 13 30.05 1018 10 16 N/A
12:52 pm 12:52 Partly Cloudy 86 30 68 20 55 55 VRB 6 9 30.04 1017 10 16 N/A
1:52 pm 13:52 Partly Cloudy 88 31.1 69 20.6 54 54 S 9 15 30.03 1017 10 16 N/A
2:52 pm 14:52 Partly Cloudy 88 31.1 67 19.4 50 50 N N/A 30.01 1016 10 16 N/A
3:52 pm 15:52 Partly Cloudy 89 31.7 69 20.6 52 52 S 10 17 30.01 1016 10 16 N/A
4:52 pm 16:52 Partly Cloudy 91 32.8 68 20 47 47 W 5 7 30.01 1016 10 16 N/A
5:52 pm 17:52 Partly Cloudy 89 31.7 68 20 50 50 SW 8 13 30.00 1016 10 16 N/A
6:52 pm 18:52 Mostly Sunny 88 31.1 69 20.6 54 54 SSW 6 9 29.99 1016 10 16 N/A
7:52 pm 19:52 Partly Cloudy 86 30 70 21.1 59 59 SSE 9 15 29.99 1016 10 16 N/A
8:52 pm 20:52 Partly Cloudy 82 27.8 70 21.1 67 67 S 7 11 29.99 1016 10 16 N/A
9:52 pm 21:52 Partly Cloudy 80 26.7 69 20.6 69 69 SSE 6 9 30.00 1016 10 16 N/A
10:52 pm 22:52 Partly Cloudy 79 26.1 68 20 69 69 SSE 3 6 30.01 1016 10 16 N/A
11:52 pm 23:52 Mostly Clear 75 23.9 68 20 79 79 S 5 7 30.02 1017 10 16 N/A

Powered by AerisWeather